When you browse on this site, cookies collect data to enhance your experience and personalize the content and advertising you see.
Visit our Privacy Policy to learn more. By continuing to use the site, you agree to this use of cookies and data.
  • In Deutschland
  • Länderverzeichnis
  • Für 7 Tage
  • Wassertemperatur
  • Wetterkarte
  • Widgets
  • user-avatar
    Anmelden

    Stündliche Wetter Tschachansur

    Heute, 21 Januar, Dienstag

    Zeit Temperatur Niederschläge Wind Luftdruck Luftfeuchtigkeit
    00:00 +8°C° 0 mm 2 m/S 721 mmHg 79%
    01:00 +7°C° 0 mm 2 m/S 721 mmHg 79%
    02:00 +7°C° 0 mm 2 m/S 721 mmHg 80%
    03:00 +6°C° 0 mm 2 m/S 721 mmHg 82%
    04:00 +6°C° 0 mm 2 m/S 721 mmHg 83%
    05:00 +6°C° 0 mm 2 m/S 721 mmHg 84%
    06:00 +6°C° 0 mm 1 m/S 722 mmHg 84%
    07:00 +6°C° 0 mm 1 m/S 722 mmHg 85%
    08:00 +7°C° 0 mm 1 m/S 722 mmHg 80%
    09:00 +8°C° 0 mm 1 m/S 723 mmHg 74%
    10:00 +9°C° 0 mm 1 m/S 723 mmHg 69%
    11:00 +10°C° 0 mm 1 m/S 723 mmHg 66%
    12:00 +10°C° 0 mm 0 m/S 722 mmHg 62%
    13:00 +11°C° 0 mm 0 m/S 722 mmHg 59%
    14:00 +11°C° 0 mm 0 m/S 722 mmHg 58%
    15:00 +11°C° 0 mm 0 m/S 721 mmHg 57%
    16:00 +13°C° 0 mm 1 m/S 721 mmHg 55%
    17:00 +12°C° 0 mm 1 m/S 722 mmHg 59%
    18:00 +11°C° 0 mm 1 m/S 722 mmHg 63%
    19:00 +11°C° 0 mm 1 m/S 722 mmHg 66%
    20:00 +11°C° 0 mm 1 m/S 723 mmHg 67%
    21:00 +11°C° 0 mm 1 m/S 723 mmHg 67%
    22:00 +10°C° 0 mm 1 m/S 723 mmHg 68%
    23:00 +10°C° 0 mm 1 m/S 723 mmHg 68%

    Morgen, 22 Januar, Mittwoch

    Zeit Temperatur Niederschläge Wind Luftdruck Luftfeuchtigkeit
    00:00 +9°C° 0 mm 2 m/S 723 mmHg 68%
    01:00 +9°C° 0 mm 2 m/S 723 mmHg 69%
    02:00 +9°C° 0 mm 2 m/S 723 mmHg 69%
    03:00 +9°C° 0 mm 2 m/S 723 mmHg 69%
    04:00 +9°C° 0 mm 3 m/S 723 mmHg 69%
    05:00 +9°C° 0 mm 3 m/S 724 mmHg 68%
    06:00 +9°C° 0 mm 3 m/S 724 mmHg 68%
    07:00 +8°C° 0 mm 4 m/S 724 mmHg 68%
    08:00 +10°C° 0 mm 4 m/S 725 mmHg 64%
    09:00 +11°C° 0 mm 4 m/S 725 mmHg 60%
    10:00 +12°C° 0 mm 4 m/S 726 mmHg 56%
    11:00 +12°C° 0 mm 4 m/S 725 mmHg 53%
    12:00 +13°C° 0 mm 3 m/S 725 mmHg 49%
    13:00 +14°C° 0 mm 3 m/S 724 mmHg 46%
    14:00 +14°C° 0 mm 3 m/S 724 mmHg 46%
    15:00 +16°C° 0 mm 3 m/S 724 mmHg 47%
    16:00 +16°C° 0 mm 2 m/S 723 mmHg 48%
    17:00 +15°C° 0 mm 2 m/S 724 mmHg 50%
    18:00 +14°C° 0 mm 3 m/S 724 mmHg 52%
    19:00 +13°C° 0 mm 3 m/S 724 mmHg 54%
    20:00 +13°C° 0 mm 3 m/S 724 mmHg 54%
    21:00 +13°C° 0 mm 4 m/S 724 mmHg 53%
    22:00 +13°C° 0 mm 4 m/S 724 mmHg 53%
    23:00 +12°C° 0 mm 4 m/S 724 mmHg 53%

    übermorgen, 23 Januar, Donnerstag

    Zeit Temperatur Niederschläge Wind Luftdruck Luftfeuchtigkeit
    00:00 +12°C° 0 mm 3 m/S 724 mmHg 53%
    01:00 +12°C° 0 mm 3 m/S 723 mmHg 53%
    02:00 +12°C° 0 mm 4 m/S 723 mmHg 53%
    03:00 +11°C° 0 mm 4 m/S 723 mmHg 53%
    04:00 +11°C° 0 mm 4 m/S 722 mmHg 54%
    05:00 +11°C° 0 mm 4 m/S 723 mmHg 55%
    06:00 +11°C° 0 mm 4 m/S 723 mmHg 56%
    07:00 +10°C° 0 mm 4 m/S 723 mmHg 57%
    08:00 +12°C° 0 mm 5 m/S 723 mmHg 54%
    09:00 +13°C° 0 mm 5 m/S 723 mmHg 51%
    10:00 +14°C° 0 mm 5 m/S 723 mmHg 48%
    11:00 +15°C° 0 mm 5 m/S 723 mmHg 45%
    12:00 +16°C° 0 mm 5 m/S 722 mmHg 42%
    13:00 +19°C° 0 mm 5 m/S 721 mmHg 39%
    14:00 +19°C° 0 mm 4 m/S 721 mmHg 39%
    15:00 +19°C° 0 mm 4 m/S 720 mmHg 39%
    16:00 +19°C° 0 mm 4 m/S 719 mmHg 39%
    17:00 +17°C° 0 mm 5 m/S 719 mmHg 41%
    18:00 +16°C° 0 mm 5 m/S 719 mmHg 44%
    19:00 +15°C° 0 mm 6 m/S 718 mmHg 47%
    20:00 +15°C° 0 mm 6 m/S 718 mmHg 48%
    21:00 +14°C° 0 mm 6 m/S 718 mmHg 49%
    22:00 +14°C° 0 mm 6 m/S 718 mmHg 50%
    23:00 +14°C° 0 mm 6 m/S 718 mmHg 51%

    24 Januar, Freitag

    Zeit Temperatur Niederschläge Wind Luftdruck Luftfeuchtigkeit
    00:00 +14°C° 0 mm 6 m/S 718 mmHg 52%
    01:00 +15°C° 0 mm 6 m/S 718 mmHg 52%
    02:00 +13°C° 0.6 mm 5 m/S 718 mmHg 63%
    03:00 +12°C° 0.6 mm 5 m/S 718 mmHg 74%
    04:00 +10°C° 0.6 mm 5 m/S 718 mmHg 85%
    05:00 +10°C° 0.2 mm 5 m/S 718 mmHg 82%
    06:00 +12°C° 0.2 mm 5 m/S 719 mmHg 80%
    07:00 +11°C° 0.2 mm 6 m/S 719 mmHg 78%
    08:00 +13°C° 0 mm 5 m/S 720 mmHg 74%
    09:00 +13°C° 0 mm 5 m/S 721 mmHg 69%
    10:00 +14°C° 0 mm 4 m/S 721 mmHg 65%
    11:00 +15°C° 0.1 mm 4 m/S 721 mmHg 63%
    12:00 +17°C° 0.1 mm 3 m/S 720 mmHg 62%
    13:00 +18°C° 0.1 mm 3 m/S 720 mmHg 60%
    14:00 +17°C° 0.4 mm 3 m/S 720 mmHg 63%
    15:00 +17°C° 0.4 mm 3 m/S 719 mmHg 66%
    16:00 +16°C° 0.4 mm 3 m/S 719 mmHg 70%
    17:00 +16°C° 0.3 mm 3 m/S 719 mmHg 72%
    18:00 +14°C° 0.3 mm 3 m/S 719 mmHg 74%
    19:00 +14°C° 0.3 mm 3 m/S 720 mmHg 76%
    20:00 +13°C° 0.1 mm 3 m/S 720 mmHg 77%
    21:00 +13°C° 0.1 mm 4 m/S 720 mmHg 78%
    22:00 +13°C° 0.1 mm 4 m/S 720 mmHg 78%
    23:00 +12°C° 0 mm 5 m/S 720 mmHg 79%

    25 Januar, Samstag

    Zeit Temperatur Niederschläge Wind Luftdruck Luftfeuchtigkeit
    00:00 +12°C° 0 mm 5 m/S 720 mmHg 79%
    01:00 +12°C° 0 mm 5 m/S 720 mmHg 80%
    02:00 +11°C° 0 mm 4 m/S 720 mmHg 80%
    03:00 +11°C° 0 mm 4 m/S 719 mmHg 81%
    04:00 +11°C° 0 mm 4 m/S 719 mmHg 81%
    05:00 +11°C° 0 mm 4 m/S 720 mmHg 80%
    06:00 +10°C° 0 mm 4 m/S 720 mmHg 80%
    07:00 +10°C° 0 mm 3 m/S 720 mmHg 79%
    08:00 +11°C° 0 mm 3 m/S 720 mmHg 75%
    09:00 +12°C° 0 mm 3 m/S 721 mmHg 71%
    10:00 +13°C° 0 mm 4 m/S 721 mmHg 67%
    11:00 +14°C° 0 mm 3 m/S 720 mmHg 63%
    12:00 +16°C° 0 mm 3 m/S 720 mmHg 60%
    13:00 +17°C° 0 mm 3 m/S 719 mmHg 56%
    14:00 +17°C° 0 mm 2 m/S 719 mmHg 55%
    15:00 +18°C° 0 mm 2 m/S 719 mmHg 53%
    16:00 +18°C° 0 mm 2 m/S 719 mmHg 51%
    17:00 +17°C° 0 mm 2 m/S 719 mmHg 55%
    18:00 +16°C° 0 mm 2 m/S 719 mmHg 59%
    19:00 +15°C° 0 mm 2 m/S 719 mmHg 62%
    20:00 +15°C° 0 mm 2 m/S 719 mmHg 64%
    21:00 +14°C° 0 mm 2 m/S 719 mmHg 65%
    22:00 +13°C° 0 mm 3 m/S 719 mmHg 67%
    23:00 +12°C° 0 mm 3 m/S 719 mmHg 67%

    26 Januar, Sonntag

    Zeit Temperatur Niederschläge Wind Luftdruck Luftfeuchtigkeit
    00:00 +12°C° 0 mm 3 m/S 718 mmHg 68%
    01:00 +12°C° 0 mm 3 m/S 718 mmHg 69%
    02:00 +11°C° 0 mm 3 m/S 717 mmHg 69%
    03:00 +11°C° 0 mm 3 m/S 717 mmHg 70%
    04:00 +10°C° 0 mm 4 m/S 717 mmHg 70%
    05:00 +10°C° 0 mm 4 m/S 717 mmHg 70%
    06:00 +10°C° 0 mm 4 m/S 717 mmHg 71%
    07:00 +9°C° 0 mm 5 m/S 717 mmHg 71%
    08:00 +9°C° 0.1 mm 5 m/S 718 mmHg 69%
    09:00 +10°C° 0.1 mm 5 m/S 718 mmHg 66%
    10:00 +10°C° 0.1 mm 6 m/S 718 mmHg 64%
    11:00 +10°C° 0.1 mm 6 m/S 717 mmHg 64%
    12:00 +10°C° 0.1 mm 7 m/S 717 mmHg 64%
    13:00 +10°C° 0.1 mm 8 m/S 716 mmHg 64%
    14:00 +8°C° 0 mm 9 m/S 716 mmHg 67%
    15:00 +7°C° 0 mm 9 m/S 716 mmHg 70%
    16:00 +6°C° 0 mm 10 m/S 716 mmHg 73%
    17:00 +5°C° 0 mm 9 m/S 716 mmHg 74%
    18:00 +3°C° 0 mm 9 m/S 717 mmHg 75%
    19:00 +4°C° 0 mm 8 m/S 717 mmHg 76%
    20:00 +2°C° 0 mm 8 m/S 718 mmHg 75%
    21:00 +2°C° 0 mm 8 m/S 718 mmHg 73%
    22:00 +1°C° 0 mm 8 m/S 718 mmHg 72%
    23:00 +1°C° 0 mm 8 m/S 718 mmHg 68%
    Mehr zeigen